Time,TemperatureF,DewpointF,PressureIn,WindDirection,WindDirectionDegrees,WindSpeedMPH,WindSpeedGustMPH,Humidity,HourlyPrecipIn,Conditions,Clouds,dailyrainin,SoftwareType,DateUTC
2012-04-28 07:07:00,36.8,17.5,29.75,SW,225,0.0,4.0,45,0.00,,---,0.00,VWS V14.01,2012-04-28 13:07:00,
2012-04-28 07:08:00,38.0,18.6,29.79,SW,229,0.0,0.0,45,0.00,,---,0.00,VWS V14.01,2012-04-28 13:08:00,
2012-04-28 07:13:00,38.2,18.8,29.79,SW,229,0.0,2.0,45,0.00,,---,0.00,VWS V14.01,2012-04-28 13:13:00,
2012-04-28 07:18:00,38.7,19.7,29.79,SW,229,2.0,4.0,46,0.00,,---,0.00,VWS V14.01,2012-04-28 13:18:00,
2012-04-28 07:23:00,39.2,21.7,29.78,SW,229,0.0,3.0,49,0.00,,---,0.00,VWS V14.01,2012-04-28 13:23:00,
2012-04-28 07:28:00,40.0,24.3,29.77,SW,229,5.0,7.0,53,0.00,,---,0.00,VWS V14.01,2012-04-28 13:28:00,
2012-04-28 07:33:00,40.6,24.4,29.77,SW,229,1.0,3.0,52,0.00,,---,0.00,VWS V14.01,2012-04-28 13:33:00,
2012-04-28 07:39:00,41.0,23.3,29.77,SW,229,1.0,4.0,49,0.00,,---,0.00,VWS V14.01,2012-04-28 13:39:00,
2012-04-28 07:44:00,41.5,23.3,29.75,SW,229,0.0,3.0,48,0.00,,---,0.00,VWS V14.01,2012-04-28 13:44:00,
2012-04-28 07:49:00,41.8,22.5,29.75,SW,229,0.0,1.0,46,0.00,,---,0.00,VWS V14.01,2012-04-28 13:49:00,
2012-04-28 07:54:00,41.7,22.5,29.75,SW,229,1.0,2.0,46,0.00,,---,0.00,VWS V14.01,2012-04-28 13:54:00,
2012-04-28 07:59:00,41.8,22.5,29.75,SW,229,0.0,4.0,46,0.00,,---,0.00,VWS V14.01,2012-04-28 13:59:00,
2012-04-28 08:04:00,42.1,21.8,29.77,SW,229,0.0,4.0,44,0.00,,---,0.00,VWS V14.01,2012-04-28 14:04:00,
2012-04-28 08:09:00,43.1,21.6,29.75,SW,229,0.0,0.0,42,0.00,,---,0.00,VWS V14.01,2012-04-28 14:09:00,
2012-04-28 08:14:00,43.8,21.6,29.75,SW,229,0.0,2.0,41,0.00,,---,0.00,VWS V14.01,2012-04-28 14:14:00,
2012-04-28 08:19:00,44.7,22.5,29.74,SW,229,2.0,4.0,41,0.00,,---,0.00,VWS V14.01,2012-04-28 14:19:00,
2012-04-28 08:25:00,45.5,22.0,29.74,SW,229,4.0,4.0,39,0.00,,---,0.00,VWS V14.01,2012-04-28 14:25:00,
2012-04-28 08:30:00,45.6,22.1,29.73,SW,229,0.0,5.0,39,0.00,,---,0.00,VWS V14.01,2012-04-28 14:30:00,
2012-04-28 08:35:00,46.1,21.9,29.73,SW,229,1.0,4.0,38,0.00,,---,0.00,VWS V14.01,2012-04-28 14:35:00,
2012-04-28 08:40:00,46.3,21.5,29.73,SW,229,0.0,5.0,37,0.00,,---,0.00,VWS V14.01,2012-04-28 14:40:00,
2012-04-28 08:45:00,45.8,21.0,29.73,SW,229,2.0,5.0,37,0.00,,---,0.00,VWS V14.01,2012-04-28 14:45:00,
2012-04-28 08:50:00,45.8,21.6,29.73,SW,229,1.0,5.0,38,0.00,,---,0.00,VWS V14.01,2012-04-28 14:50:00,
2012-04-28 08:55:00,47.0,22.1,29.71,SW,229,1.0,4.0,37,0.00,,---,0.00,VWS V14.01,2012-04-28 14:55:00,
2012-04-28 09:00:00,48.2,22.5,29.71,SW,229,0.0,2.0,36,0.00,,---,0.00,VWS V14.01,2012-04-28 15:00:00,
2012-04-28 09:05:00,48.1,21.8,29.71,SW,229,0.0,4.0,35,0.00,,---,0.00,VWS V14.01,2012-04-28 15:05:00,
2012-04-28 09:10:00,48.5,22.1,29.69,SW,229,5.0,6.0,35,0.00,,---,0.00,VWS V14.01,2012-04-28 15:10:00,
2012-04-28 09:15:00,48.1,21.8,29.71,SW,229,0.0,4.0,35,0.00,,---,0.00,VWS V14.01,2012-04-28 15:15:00,
2012-04-28 09:20:00,48.1,21.8,29.71,SW,235,4.0,7.0,35,0.00,,---,0.00,VWS V14.01,2012-04-28 15:20:00,
2012-04-28 09:25:00,47.4,22.5,29.71,WSW,257,7.0,11.0,37,0.00,,---,0.00,VWS V14.01,2012-04-28 15:25:00,
2012-04-28 09:30:00,47.9,22.2,29.71,WNW,300,3.0,9.0,36,0.00,,---,0.00,VWS V14.01,2012-04-28 15:30:00,
2012-04-28 09:36:00,48.6,22.9,29.71,WNW,300,0.0,5.0,36,0.00,,---,0.00,VWS V14.01,2012-04-28 15:36:00,
2012-04-28 09:41:00,49.0,23.2,29.69,WNW,301,0.0,10.0,36,0.00,,---,0.00,VWS V14.01,2012-04-28 15:41:00,
2012-04-28 09:46:00,49.0,23.2,29.68,WNW,300,1.0,11.0,36,0.00,,---,0.00,VWS V14.01,2012-04-28 15:46:00,
2012-04-28 09:51:00,49.7,23.2,29.69,WNW,301,0.0,6.0,35,0.00,,---,0.00,VWS V14.01,2012-04-28 15:51:00,
2012-04-28 09:56:00,50.3,23.7,29.69,NW,309,6.0,7.0,35,0.00,,---,0.00,VWS V14.01,2012-04-28 15:56:00,
2012-04-28 10:01:00,50.4,22.4,29.67,NW,309,0.0,9.0,33,0.00,,---,0.00,VWS V14.01,2012-04-28 16:01:00,
2012-04-28 10:06:00,49.6,21.0,29.68,NW,309,2.0,11.0,32,0.00,,---,0.00,VWS V14.01,2012-04-28 16:06:00,
2012-04-28 10:11:00,49.2,20.6,29.70,NW,309,5.0,13.0,32,0.00,,---,0.00,VWS V14.01,2012-04-28 16:11:00,
2012-04-28 10:16:00,49.7,21.1,29.68,NW,309,5.0,5.0,32,0.00,,---,0.00,VWS V14.01,2012-04-28 16:16:00,
2012-04-28 10:21:00,50.9,22.8,29.68,NW,309,1.0,5.0,33,0.00,,---,0.00,VWS V14.01,2012-04-28 16:21:00,
2012-04-28 10:26:00,51.0,22.2,29.68,NW,309,1.0,7.0,32,0.00,,---,0.00,VWS V14.01,2012-04-28 16:26:00,
2012-04-28 10:31:00,51.2,20.9,29.68,NNW,340,1.0,9.0,30,0.00,,---,0.00,VWS V14.01,2012-04-28 16:31:00,
2012-04-28 10:36:00,50.7,20.4,29.68,NNW,345,8.0,10.0,30,0.00,,---,0.00,VWS V14.01,2012-04-28 16:36:00,
2012-04-28 10:41:00,49.8,20.4,29.68,NNW,346,6.0,7.0,31,0.00,,---,0.00,VWS V14.01,2012-04-28 16:41:00,
2012-04-28 10:46:00,49.7,20.3,29.68,NNW,345,0.0,0.0,31,0.00,,---,0.00,VWS V14.01,2012-04-28 16:46:00,
2012-04-28 10:51:00,50.1,20.7,29.68,NNW,346,0.0,0.0,31,0.00,,---,0.00,VWS V14.01,2012-04-28 16:51:00,
2012-04-28 10:56:00,50.7,20.4,29.68,NNW,346,0.0,1.0,30,0.00,,---,0.00,VWS V14.01,2012-04-28 16:56:00,
2012-04-28 11:01:00,51.0,20.7,29.68,NNW,346,4.0,4.0,30,0.00,,---,0.00,VWS V14.01,2012-04-28 17:01:00,
2012-04-28 11:06:00,51.3,21.7,29.73,NNW,345,4.0,4.0,31,0.00,,---,0.00,VWS V14.01,2012-04-28 17:06:00,
2012-04-28 11:11:00,52.4,21.1,29.72,NNW,346,2.0,2.0,29,0.00,,---,0.00,VWS V14.01,2012-04-28 17:11:00,
2012-04-28 11:17:00,53.3,21.0,29.72,NNW,345,0.0,1.0,28,0.00,,---,0.00,VWS V14.01,2012-04-28 17:17:00,
2012-04-28 11:22:00,53.8,21.5,29.69,NNW,346,5.0,7.0,28,0.00,,---,0.00,VWS V14.01,2012-04-28 17:22:00,
2012-04-28 11:27:00,53.6,21.3,29.70,North,9,0.0,0.0,28,0.00,,---,0.00,VWS V14.01,2012-04-28 17:27:00,
2012-04-28 11:32:00,53.5,21.2,29.71,North,9,3.0,5.0,28,0.00,,---,0.00,VWS V14.01,2012-04-28 17:32:00,
2012-04-28 11:37:00,53.4,21.1,29.70,WNW,287,0.0,5.0,28,0.00,,---,0.00,VWS V14.01,2012-04-28 17:37:00,
2012-04-28 11:42:00,53.6,21.3,29.69,WNW,292,6.0,7.0,28,0.00,,---,0.00,VWS V14.01,2012-04-28 17:42:00,
2012-04-28 11:47:00,53.5,21.2,29.69,WNW,295,0.0,1.0,28,0.00,,---,0.00,VWS V14.01,2012-04-28 17:47:00,
2012-04-28 11:52:00,53.3,21.0,29.69,WNW,296,9.0,9.0,28,0.00,,---,0.00,VWS V14.01,2012-04-28 17:52:00,
2012-04-28 11:57:00,53.0,20.8,29.71,WNW,301,0.0,7.0,28,0.00,,---,0.00,VWS V14.01,2012-04-28 17:57:00,
2012-04-28 12:02:00,53.7,20.5,29.68,WNW,301,12.0,12.0,27,0.00,,---,0.00,VWS V14.01,2012-04-28 18:02:00,
2012-04-28 12:06:00,53.7,20.5,29.72,WNW,301,5.0,12.0,27,0.00,,---,0.00,VWS V14.01,2012-04-28 18:06:00,
2012-04-28 12:11:00,53.1,20.9,29.72,WNW,288,8.0,12.0,28,0.00,,---,0.00,VWS V14.01,2012-04-28 18:11:00,
2012-04-28 12:16:00,53.0,20.8,29.71,WSW,249,4.0,12.0,28,0.00,,---,0.00,VWS V14.01,2012-04-28 18:16:00,
2012-04-28 12:17:00,53.0,21.6,29.71,WSW,249,2.0,7.0,29,0.00,,---,0.00,VWS V14.01,2012-04-28 18:17:00,
2012-04-28 12:22:00,52.9,21.5,29.71,WSW,248,4.0,7.0,29,0.00,,---,0.00,VWS V14.01,2012-04-28 18:22:00,
2012-04-28 12:28:00,53.5,22.0,29.71,WSW,248,0.0,1.0,29,0.00,,---,0.00,VWS V14.01,2012-04-28 18:28:00,
2012-04-28 12:33:00,53.7,22.2,29.71,WSW,248,0.0,1.0,29,0.00,,---,0.00,VWS V14.01,2012-04-28 18:33:00,
2012-04-28 12:38:00,54.0,22.5,29.71,WSW,248,1.0,4.0,29,0.00,,---,0.00,VWS V14.01,2012-04-28 18:38:00,
2012-04-28 12:43:00,53.7,21.4,29.70,WSW,248,7.0,11.0,28,0.00,,---,0.00,VWS V14.01,2012-04-28 18:43:00,
2012-04-28 12:48:00,52.4,21.1,29.72,WSW,248,2.0,9.0,29,0.00,,---,0.00,VWS V14.01,2012-04-28 18:48:00,
2012-04-28 12:53:00,52.3,21.0,29.72,WSW,248,3.0,7.0,29,0.00,,---,0.00,VWS V14.01,2012-04-28 18:53:00,
2012-04-28 12:59:00,52.6,21.3,29.70,WSW,248,0.0,2.0,29,0.00,,---,0.00,VWS V14.01,2012-04-28 18:59:00,
2012-04-28 13:04:00,52.9,20.7,29.70,WSW,248,2.0,2.0,28,0.00,,---,0.00,VWS V14.01,2012-04-28 19:04:00,
2012-04-28 13:09:00,52.9,20.7,29.70,WSW,249,5.0,7.0,28,0.00,,---,0.00,VWS V14.01,2012-04-28 19:09:00,
2012-04-28 13:14:00,52.8,21.4,29.69,WSW,247,4.0,8.0,29,0.00,,---,0.00,VWS V14.01,2012-04-28 19:14:00,
2012-04-28 13:19:00,53.0,22.4,29.69,WSW,247,2.0,2.0,30,0.00,,---,0.00,VWS V14.01,2012-04-28 19:19:00,
2012-04-28 13:24:00,52.9,21.5,29.69,WSW,245,2.0,6.0,29,0.00,,---,0.00,VWS V14.01,2012-04-28 19:24:00,
2012-04-28 13:29:00,53.1,22.5,29.69,WSW,246,0.0,1.0,30,0.00,,---,0.00,VWS V14.01,2012-04-28 19:29:00,
2012-04-28 13:30:00,53.2,22.6,29.69,WSW,246,1.0,1.0,30,0.00,,---,0.00,VWS V14.01,2012-04-28 19:30:00,
2012-04-28 13:35:00,53.4,22.8,29.69,WSW,245,0.0,3.0,30,0.00,,---,0.00,VWS V14.01,2012-04-28 19:35:00,
2012-04-28 13:40:00,53.4,22.8,29.69,WSW,246,0.0,3.0,30,0.00,,---,0.00,VWS V14.01,2012-04-28 19:40:00,
2012-04-28 13:45:00,53.2,22.6,29.69,WSW,245,0.0,2.0,30,0.00,,---,0.00,VWS V14.01,2012-04-28 19:45:00,
2012-04-28 13:46:00,53.2,22.6,29.69,WSW,246,0.0,2.0,30,0.00,,---,0.00,VWS V14.01,2012-04-28 19:46:00,
2012-04-28 13:51:00,53.2,23.4,29.69,WSW,246,0.0,4.0,31,0.00,,---,0.00,VWS V14.01,2012-04-28 19:51:00,
2012-04-28 13:56:00,52.7,23.7,29.69,WSW,245,0.0,1.0,32,0.00,,---,0.00,VWS V14.01,2012-04-28 19:56:00,
2012-04-28 14:01:00,52.6,23.6,29.70,WSW,245,0.0,0.0,32,0.00,,---,0.00,VWS V14.01,2012-04-28 20:01:00,
2012-04-28 14:06:00,52.5,23.5,29.75,WSW,242,4.0,4.0,32,0.00,,---,0.00,VWS V14.01,2012-04-28 20:06:00,
2012-04-28 14:11:00,52.4,24.2,29.74,WSW,242,0.0,0.0,33,0.00,,---,0.00,VWS V14.01,2012-04-28 20:11:00,
2012-04-28 14:12:00,52.4,24.2,29.74,WSW,242,0.0,0.0,33,0.00,,---,0.00,VWS V14.01,2012-04-28 20:12:00,
2012-04-28 14:17:00,52.4,23.4,29.75,WSW,242,0.0,5.0,32,0.00,,---,0.00,VWS V14.01,2012-04-28 20:17:00,
2012-04-28 14:22:00,52.4,23.4,29.75,WSW,242,0.0,0.0,32,0.00,,---,0.00,VWS V14.01,2012-04-28 20:22:00,